GW5992 Weather Reports


time (UTC)temp
C
wind
direction
speed
KPH
gust
KPH
rain 1hr
cm
rain 24hr
cm
rain mn
cm
humidity
%
barometer
mb
20260506114717 14 360 4.8 20.9 0.00 0.00 0.00 56 1013.7
20260506113604 14 4 9.7 29.0 0.00 0.00 0.00 55 1013.8
20260506112703 14 6 6.4 19.3 0.00 0.00 0.00 54 1013.8
20260506111803 14 356 6.4 20.9 0.00 0.00 0.00 54 1013.9
20260506110905 14 353 8.0 24.1 0.00 0.00 0.00 54 1013.8
20260506110005 13 357 8.0 24.1 0.00 0.00 0.00 54 1013.8
20260506105403 13 351 6.4 20.9 0.00 0.00 0.00 55 1013.9
20260506104505 13 343 6.4 19.3 0.00 0.00 0.00 59 1013.8
20260506103603 13 1 8.0 22.5 0.00 0.00 0.00 57 1013.8
20260506102705 13 348 6.4 19.3 0.00 0.00 0.00 59 1013.8
20260506101805 13 359 6.4 17.7 0.00 0.00 0.00 59 1013.8
20260506100903 13 7 8.0 17.7 0.00 0.00 0.00 60 1013.8
20260506100004 12 10 8.0 25.7 0.00 0.00 0.00 62 1013.8
20260506095622 12 6 8.0 25.7 0.00 0.00 0.00 62 1013.7
20260506094503 12 358 8.0 27.4 0.00 0.00 0.00 61 1013.7
20260506093605 12 357 8.0 24.1 0.00 0.00 0.00 64 1013.7
20260506092917 12 5 4.8 24.1 0.00 0.00 0.00 67 1013.7
20260506091805 11 5 6.4 16.1 0.00 0.00 0.00 72 1013.7
20260506090905 10 351 6.4 16.1 0.00 0.00 0.00 72 1013.8
20260506090005 10 3 3.2 14.5 0.00 0.00 0.00 74 1013.8
20260506085405 9 360 6.4 16.1 0.00 0.00 0.00 74 1013.8
20260506084505 9 345 4.8 16.1 0.00 0.00 0.00 75 1013.8
20260506083819 9 358 8.0 22.5 0.00 0.00 0.00 74 1013.8
20260506082706 8 1 6.4 19.3 0.00 0.00 0.00 76 1013.7
20260506081806 8 357 8.0 19.3 0.00 0.00 0.00 77 1013.8
20260506072704 7 344 4.8 16.1 0.00 0.00 0.00 80 1013.9
20260506072019 7 346 4.8 19.3 0.00 0.00 0.00 80 1013.8
20260506070905 8 350 6.4 19.3 0.00 0.00 0.00 79 1013.7
20260506061803 7 9 3.2 14.5 0.00 0.00 0.00 82 1013.5
20260506060905 7 356 4.8 19.3 0.00 0.00 0.00 82 1013.5
20260506050905 7 357 3.2 14.5 0.00 0.00 0.00 83 1013.4
20260506050219 7 5 3.2 14.5 0.00 0.00 0.00 83 1013.3
20260506044503 7 340 3.2 12.9 0.00 0.00 0.00 83 1013.3
20260506043820 7 327 1.6 8.0 0.00 0.00 0.00 83 1013.2
20260506042917 7 353 1.6 6.4 0.00 0.00 0.00 83 1013.2
20260506041805 7 345 3.2 9.7 0.00 0.00 0.00 83 1013.2
20260506040905 7 4 1.6 9.7 0.00 0.00 0.00 83 1013.4
20260506040005 7 344 4.8 14.5 0.00 0.00 0.00 83 1013.4
20260506035616 7 350 4.8 14.5 0.00 0.00 0.00 83 1013.4
20260506034505 7 338 3.2 9.7 0.00 0.00 0.00 82 1013.3
20260506033605 7 341 3.2 12.9 0.00 0.00 0.00 82 1013.3
20260506032919 7 350 3.2 14.5 0.00 0.00 0.00 82 1013.3
20260506031804 8 9 0.0 6.4 0.00 0.00 0.00 82 1013.3
20260506030904 8 12 3.2 12.9 0.00 0.00 0.00 82 1013.5
20260506030003 8 20 1.6 14.5 0.00 0.00 0.00 82 1013.4
20260506025404 8 26 3.2 14.5 0.00 0.00 0.00 82 1013.5
20260506024503 8 10 3.2 16.1 0.00 0.00 0.00 82 1013.5
20260506023604 8 7 3.2 12.9 0.00 0.00 0.00 82 1013.4
20260506022703 8 7 4.8 19.3 0.00 0.00 0.00 83 1013.4
20260506022017 8 353 4.8 14.5 0.00 0.00 0.00 83 1013.4
20260506020905 8 1 6.4 17.7 0.00 0.00 0.00 83 1013.5
20260506020003 8 4 4.8 14.5 0.00 0.00 0.00 83 1013.5
20260506015403 8 7 4.8 19.3 0.00 0.00 0.00 83 1013.5
20260506014504 8 2 4.8 14.5 0.00 0.00 0.00 82 1013.3
20260506013603 8 12 3.2 12.9 0.00 0.00 0.00 82 1013.3
20260506012703 8 3 3.2 14.5 0.00 0.00 0.00 82 1013.4
20260506011805 9 4 4.8 16.1 0.00 0.00 0.00 82 1013.4
20260506010905 9 354 1.6 9.7 0.00 0.00 0.00 83 1013.5
20260506010005 9 358 3.2 12.9 0.00 0.00 0.00 83 1013.6
20260506005403 9 347 3.2 12.9 0.00 0.00 0.00 83 1013.6
20260506004505 9 18 1.6 6.4 0.00 0.00 0.00 83 1013.5
20260506003603 9 8 1.6 6.4 0.00 0.00 0.00 83 1013.5
20260506002703 10 7 4.8 16.1 0.00 0.00 0.00 83 1013.5
20260506001805 10 5 4.8 16.1 0.00 0.00 0.00 83 1013.6
20260506000905 10 12 3.2 14.5 0.00 0.00 0.00 82 1013.6
20260506000005 10 1 3.2 8.0 0.00 0.00 0.00 82 1013.6
20260505235405 10 10 3.2 11.3 0.00 0.00 0.00 81 1013.6
20260505234503 10 5 3.2 14.5 0.00 0.00 0.00 81 1013.6
20260505233603 10 7 3.2 16.1 0.00 0.00 0.00 81 1013.6
20260505232922 10 8 3.2 11.3 0.00 0.00 0.00 80 1013.7
20260505231805 10 2 6.4 17.7 0.00 0.00 0.00 79 1013.6
20260505230903 10 6 3.2 9.7 0.00 0.00 0.00 79 1013.6
20260505230005 10 37 1.6 8.0 0.00 0.00 0.00 78 1013.7
20260505225617 10 28 3.2 12.9 0.00 0.00 0.00 78 1013.6
20260505224719 10 6 4.8 19.3 0.00 0.00 0.00 77 1013.6
20260505223605 10 11 4.8 17.7 0.00 0.00 0.00 77 1013.6
20260505222703 10 4 6.4 24.1 0.00 0.00 0.00 76 1013.6
20260505221805 11 3 8.0 22.5 0.00 0.00 0.00 76 1013.6
20260505220904 11 6 9.7 22.5 0.00 0.00 0.00 76 1013.5
20260505220005 11 16 4.8 12.9 0.00 0.00 0.00 76 1013.5
20260505215618 11 13 4.8 17.7 0.00 0.00 0.00 76 1013.4
20260505214503 11 7 3.2 14.5 0.00 0.00 0.00 75 1013.4
20260505213605 11 3 3.2 9.7 0.00 0.00 0.00 75 1013.2
20260505212705 11 7 4.8 16.1 0.00 0.00 0.00 74 1013.2
20260505212020 12 5 8.0 19.3 0.00 0.00 0.00 74 1013.1
20260505210905 12 13 4.8 16.1 0.00 0.00 0.00 72 1013.1
20260505210005 12 17 3.2 14.5 0.00 0.00 0.00 72 1013.0
20260505205403 12 7 4.8 14.5 0.00 0.00 0.00 72 1013.0
20260505204719 12 9 4.8 14.5 0.00 0.00 0.00 72 1012.9
20260505203818 12 5 6.4 20.9 0.00 0.00 0.00 73 1013.0
20260505202705 12 2 3.2 14.5 0.00 0.00 0.00 73 1012.8
20260505201805 12 6 3.2 12.9 0.00 0.00 0.00 73 1012.7
20260505200905 12 8 6.4 20.9 0.00 0.00 0.00 73 1012.7
20260505200218 12 9 6.4 17.7 0.00 0.00 0.00 73 1012.7
20260505195404 13 3 4.8 17.7 0.00 0.00 0.00 74 1012.6
20260505194505 13 9 4.8 16.1 0.00 0.00 0.00 74 1012.4
20260505193818 13 10 4.8 16.1 0.00 0.00 0.00 74 1012.4
20260505192704 13 9 6.4 24.1 0.00 0.00 0.00 73 1012.3
20260505191803 13 5 8.0 22.5 0.00 0.00 0.00 72 1012.2
20260505191118 13 354 8.0 22.5 0.00 0.00 0.00 71 1012.2
20260505190005 13 358 6.4 22.5 0.00 0.00 0.00 70 1012.0
20260505185403 14 4 4.8 22.5 0.00 0.00 0.00 69 1011.9
20260505184503 14 3 3.2 12.9 0.00 0.00 0.00 69 1011.8
20260505183604 14 8 3.2 14.5 0.00 0.00 0.00 69 1011.8
20260505182703 14 16 3.2 16.1 0.00 0.00 0.00 69 1011.7
20260505181805 14 6 3.2 11.3 0.00 0.00 0.00 70 1011.8
20260505180903 14 354 3.2 8.0 0.00 0.00 0.00 70 1011.7
20260505180003 14 345 3.2 8.0 0.00 0.00 0.00 69 1011.8
20260505175404 14 342 4.8 11.3 0.00 0.00 0.00 69 1011.8
20260505174718 14 340 3.2 11.3 0.00 0.00 0.00 69 1011.7
20260505173605 14 344 3.2 8.0 0.00 0.00 0.00 69 1011.8
20260505172919 14 351 3.2 8.0 0.00 0.00 0.00 69 1011.8
20260505171803 14 350 4.8 14.5 0.00 0.00 0.00 68 1011.8
20260505170904 14 347 3.2 14.5 0.00 0.00 0.00 68 1012.0
20260505170003 15 343 4.8 11.3 0.00 0.00 0.00 67 1012.0
20260505165405 15 354 4.8 9.7 0.00 0.00 0.00 67 1012.0
20260505164503 15 353 3.2 8.0 0.00 0.00 0.00 67 1012.0
20260505163603 15 339 4.8 11.3 0.00 0.00 0.00 66 1012.0
20260505162703 15 351 4.8 12.9 0.00 0.00 0.00 66 1012.0
20260505162020 15 347 4.8 16.1 0.00 0.00 0.00 65 1012.0
20260505160904 15 7 3.2 14.5 0.00 0.00 0.00 66 1011.9
20260505152705 15 342 3.2 8.0 0.00 0.00 0.00 68 1012.1
20260505151803 15 335 3.2 8.0 0.00 0.00 0.00 68 1012.1
20260505151119 15 351 4.8 12.9 0.00 0.00 0.00 68 1012.1
20260505124506 16 356 1.6 8.0 0.00 0.00 0.00 64 1012.6
20260505123605 16 13 1.6 9.7 0.00 0.00 0.00 64 1012.6
20260505122705 16 14 1.6 12.9 0.00 0.00 0.00 65 1012.6
20260505121804 16 353 3.2 11.3 0.00 0.00 0.00 64 1012.6
20260505120905 16 337 1.6 6.4 0.00 0.00 0.00 64 1012.6
20260505120004 16 3 1.6 4.8 0.00 0.00 0.00 65 1012.6
20260505115616 16 9 1.6 4.8 0.00 0.00 0.00 65 1012.7